Retour au catalogue

H-2A R/B

ActifPO
NORAD 39771·ROCKET BODY·🇯🇵 Japan

Lancé May 24, 2014 depuis Tanegashima Space Center

Loading…

Prochains Passages (prochaines 24 heures)

TLE

FraisSource: Space-Track

Époque: Sep 14, 2026, 23:09 UTC

1 39771U 14029F   26257.96482531  .00004467  00000-0  24090-3 0  9992
2 39771  98.2038 261.2194 0008166 192.8276 167.2747 15.15338964672464

Suivez H-2A R/B en temps réel avec AllMySat

Download on the App Store